Flag for France Weather past 2 weeks in Villeurbanne, France

Now
43 °F

Rain. Fog.


Feels Like: 43 °F
Forecast: 35 / 43 °F
Wind: 2 mph from North

Location: Lyon / Bron

Current Time: Feb 27, 2015 at 12:19:29 AM

Latest Report: Feb 27, 2015 at 12:00 AM


Visibility: 2 mi

Pressure: 29.95 "Hg

Humidity: 81%

Dew point: 37 °F

Location of VilleurbanneLocation

Historic Weather in Villeurbanne — Graph

°F

Villeurbanne temperature yesterday

Maximum temperature yesterday: 48 °F (at 3:00 PM)
Minimum temperature yesterday: 32 °F (at 5:00 AM)
Average temperature yesterday: 40 °F

Past Weeks' High & Low Weather Summary

 TemperatureHumidityPressure
High59 °F (Feb 12, 4:00 PM)93% (Feb 12, 2:30 AM)30.63 "Hg (Feb 12, 2:30 AM)
Low28 °F (Feb 12, 2:30 AM)34% (Feb 12, 4:30 PM)29.59 "Hg (Feb 21, 6:30 AM)
Average42 °F75%30.05 "Hg
* Reported Feb 11 11:00 PM — Feb 26 11:00 PM, Villeurbanne, Weather by CustomWeather, © 2015

Note: Actual official high and low records may vary slightly from our data, if they occured in-between our weather recording intervals... More about our weather records

Advertising

Villeurbanne weather history for previous 24 hours

 ConditionsComfort  
Time TempWeatherWind HumidityBarometerVisibility
11:00 PM
Thu, Feb 26
43 °FLight rain. Overcast.3 mph76%29.95 "HgN/A
10:30 PM43 °FOvercast.3 mph76%29.98 "HgN/A
10:00 PM43 °FOvercast.3 mph76%29.98 "HgN/A
9:30 PM43 °FOvercast.2 mph76%29.98 "HgN/A
9:00 PM43 °FOvercast.3 mph76%30.01 "HgN/A
8:30 PM43 °FMostly cloudy.3 mph76%30.01 "HgN/A
8:00 PM43 °FMostly cloudy.2 mph81%30.04 "HgN/A
7:30 PM43 °FLight rain. Clear.2 mph81%30.04 "HgN/A
7:00 PM45 °FLight rain. Overcast.2 mph66%30.04 "HgN/A
6:30 PM45 °FLight rain. Overcast.2 mph71%30.04 "HgN/A
6:00 PM46 °FLight rain. Mostly cloudy.1 mph62%30.04 "HgN/A
5:30 PM46 °FMostly cloudy.5 mph62%30.04 "HgN/A
5:00 PM46 °FClear.5 mph57%30.04 "HgN/A
4:30 PM48 °FClear.5 mph54%30.04 "HgN/A
4:00 PM48 °FClear.5 mph58%30.04 "HgN/A
3:30 PM48 °FClear.3 mph62%30.07 "HgN/A
3:00 PM48 °FClear.3 mph62%30.07 "HgN/A
2:30 PM46 °FClear.3 mph66%30.07 "HgN/A
2:00 PM46 °FClear.5 mph66%30.09 "HgN/A
1:30 PM46 °FClear.5 mph66%30.09 "HgN/A
1:00 PM46 °FClear.1 mph66%30.09 "HgN/A
12:30 PM46 °FClear.2 mph66%30.12 "HgN/A
12:00 PM45 °FClear.3 mph66%30.12 "HgN/A
11:30 AM45 °FClear.No wind66%30.15 "HgN/A
11:00 AM43 °FClear.2 mph71%30.15 "HgN/A
10:30 AM41 °FClear.2 mph70%30.15 "HgN/A
10:00 AM39 °FClear.No wind75%30.15 "HgN/A
9:30 AM37 °FClear.3 mph75%30.15 "HgN/A
9:00 AM36 °FClear.2 mph81%30.15 "HgN/A
8:30 AM34 °FClear.3 mph87%30.15 "HgN/A
8:00 AM32 °FClear.2 mph93%30.15 "HgN/A
7:30 AM32 °FClear.2 mph93%30.15 "HgN/A
6:30 AM32 °FClear.1 mph87%30.15 "HgN/A
6:00 AM32 °FClear.2 mph87%30.15 "HgN/A
5:30 AM32 °FClear.1 mph93%30.15 "HgN/A
5:00 AM32 °FClear.No wind87%30.12 "HgN/A
4:30 AM34 °FClear.1 mph87%30.15 "HgN/A
4:00 AM34 °FClear.1 mph87%30.12 "HgN/A
3:30 AM34 °FClear.No wind87%30.15 "HgN/A
3:00 AM34 °FClear.No wind87%30.15 "HgN/A
2:30 AM34 °FClear.No wind87%30.15 "HgN/A
2:00 AM34 °FClear.No wind87%30.15 "HgN/A
1:30 AM36 °FClear.1 mph81%30.15 "HgN/A
1:00 AM37 °FClear.2 mph75%30.15 "HgN/A
12:30 AM39 °FClear.5 mph75%30.15 "HgN/A
12:00 AM39 °FClear.5 mph70%30.15 "HgN/A
Weather by CustomWeather, © 2015

See weather overviewHow to use our weather pages